Location: Coffee Creek Observatory
(38.8077°N, 94.7179°W)
Time: 13:55:57
(UTC-05:00)

Amateur Radio Satellites - All Passes

Search period start: 30 October 2014 13:25
Search period end: 31 October 2014 13:25
Location: Coffee Creek Observatory, 38.8077°N, 94.7179°W

Satellite Date Start Highest point End Downlink Frequencies (MHz)
Time Altitude Azimuth
Uribyol 2 30 Oct 13:32:58 13:36:37 20° 64° (ENE) 13:40:17 436.500 FM
ITAMSAT 1 30 Oct 13:40:22 13:44:14 22° 65° (ENE) 13:48:07 435.822 SSB
ISS 30 Oct 13:42:58 13:43:43 11° 350° (N) 13:44:28 145.800 FM
AO-Echo 30 Oct 13:45:25 13:49:40 29° 68° (ENE) 13:54:03 ?
Oscar 19 30 Oct 13:52:42 13:57:48 68° 74° (ENE) 14:02:54 437.125 CW, 437.150 USB
Saudisat 1A 30 Oct 14:00:30 14:02:06 12° 40° (NE) 14:03:41 436.775 MHz
Sapphire 30 Oct 14:08:50 14:11:47 15° 257° (WSW) 14:14:44 437.095 MHz 1200 baud AX-25 AFSK
AO-7 30 Oct 14:13:56 14:14:18 10° 44° (NE) 14:14:40 29.400 - 29.500 MHz
AO-27 30 Oct 14:26:11 14:31:17 58° 73° (ENE) 14:36:26 436.795 MHz FM
Gurwin Techsat 1B 30 Oct 14:35:51 14:40:40 37° 69° (ENE) 14:45:31 435.225 FM
Oscar 16 30 Oct 14:39:55 14:44:46 41° 261° (W) 14:49:38 437.025 USB, Beacon 2401.1428
TMSAT-1 30 Oct 14:43:10 14:47:48 32° 68° (ENE) 14:52:28 436.925 FM
UOSAT-12 30 Oct 14:55:24 14:59:08 23° 313° (NW) 15:02:55 437.025 FM, 437.400 FM
JAS-1B 30 Oct 15:05:49 15:11:00 33° 263° (W) 15:16:04 435.800 - 435.900 CW/SSB
Uribyol 2 30 Oct 15:10:37 15:15:41 51° 260° (W) 15:20:47 436.500 FM
ITAMSAT 1 30 Oct 15:18:24 15:23:23 46° 261° (W) 15:28:25 435.822 SSB
KITSAT 1 30 Oct 15:19:25 15:20:47 10° 340° (NNW) 15:22:10 435.175 FM
ISS 30 Oct 15:20:50 15:21:40 11° 11° (N) 15:22:30 145.800 FM
AO-Echo 30 Oct 15:23:59 15:28:20 30° 264° (W) 15:32:50 ?
Oscar 19 30 Oct 15:35:17 15:37:35 13° 269° (W) 15:39:53 437.125 CW, 437.150 USB
Uosat F 30 Oct 15:37:44 15:40:28 15° 62° (ENE) 15:43:13 435.120 FM
Saudisat 1A 30 Oct 15:37:54 15:42:21 84° 59° (ENE) 15:46:46 436.775 MHz
AO-7 30 Oct 15:57:15 16:05:06 50° 65° (ENE) 16:12:58 29.400 - 29.500 MHz
AO-27 30 Oct 16:08:03 16:11:09 16° 268° (W) 16:14:17 436.795 MHz FM
Gurwin Techsat 1B 30 Oct 16:16:19 16:20:41 26° 265° (W) 16:25:05 435.225 FM
TMSAT-1 30 Oct 16:23:03 16:27:39 30° 264° (W) 16:32:18 436.925 FM
JAS-2 30 Oct 16:48:52 16:53:52 25° 61° (ENE) 16:59:19 435.800 - 435.900 CW/SSB, 435.910 FM
ISS 30 Oct 16:56:12 16:59:13 30° 30° (NNE) 17:02:12 145.800 FM
Uosat F 30 Oct 17:13:42 17:18:41 65° 258° (WSW) 17:23:42 435.120 FM
Hamsat 30 Oct 17:27:50 17:30:57 21° 68° (ENE) 17:34:05 145.90 MHz
OPAL 30 Oct 17:41:45 17:45:06 18° 95° (E) 17:48:26 ?
AO-7 30 Oct 17:50:40 17:58:01 35° 262° (W) 18:05:26 29.400 - 29.500 MHz
JAS-2 30 Oct 18:32:17 18:38:18 57° 261° (W) 18:45:10 435.800 - 435.900 CW/SSB, 435.910 FM
ISS 30 Oct 18:32:55 18:35:52 29° 226° (SW) 18:38:49 145.800 FM
AO-40 30 Oct 18:54:03 01:34:27 48° 181° (S) 04:03:24 Beacon 2401.320
SO-67 30 Oct 18:56:54 18:59:34 22° 71° (ENE) 19:02:15 435.3500 MHz FM
Hamsat 30 Oct 19:03:02 19:06:43 30° 264° (W) 19:10:24 145.90 MHz
KITSAT 1 30 Oct 19:13:43 19:20:10 25° 42° (NE) 19:26:36 435.175 FM
SO-50 30 Oct 19:18:03 19:20:30 14° 41° (NE) 19:22:57 436.795 FM
OPAL 30 Oct 19:19:28 19:24:12 47° 291° (WNW) 19:28:56 ?
HO-68 30 Oct 19:26:15 19:28:52 12° 52° (NE) 19:31:30 435.675 MHz FM
STRAND 1 30 Oct 19:35:37 19:40:17 34° 97° (E) 19:44:55 ?
SO-67 30 Oct 20:30:02 20:32:28 18° 266° (W) 20:34:54 435.3500 MHz FM
Oscar 10/S400 30 Oct 20:34:34 21:08:46 57° 198° (SSW) 06:35:21 145.825 - 145.975 CW/USB, Beacon 145.810 USB
SO-50 30 Oct 20:56:53 21:01:46 86° 59° (ENE) 21:06:39 436.795 FM
UKube-1 30 Oct 21:06:52 21:09:33 16° 65° (ENE) 21:12:15 145.840 MHz, 145.915 MHz
HO-68 30 Oct 21:08:10 21:15:14 67° 70° (ENE) 21:22:22 435.675 MHz FM
KITSAT 1 30 Oct 21:08:24 21:16:30 83° 243° (WSW) 21:24:33 435.175 FM
STRAND 1 30 Oct 21:15:02 21:19:19 27° 293° (WNW) 21:23:35 ?
RS-15 30 Oct 21:23:05 21:33:47 60° 113° (ESE) 21:44:23 29.354 - 29.394 USB, Beacon 29.352 USB
Oscar 11 30 Oct 21:41:07 21:45:00 34° 71° (ENE) 21:48:54 145.825 FM, Beacon 2401.500 USB
UOSAT-12 30 Oct 21:45:24 21:49:29 28° 49° (NE) 21:53:30 437.025 FM, 437.400 FM
FUNcube-1 30 Oct 21:56:26 21:59:54 22° 68° (ENE) 22:03:20 145.950 - 145.970 MHz USB
SO-50 30 Oct 22:41:05 22:41:36 10° 254° (WSW) 22:42:08 436.795 FM
UKube-1 30 Oct 22:41:12 22:45:21 44° 261° (W) 22:49:33 145.840 MHz, 145.915 MHz
ZACube-1 30 Oct 22:48:21 22:52:55 83° 76° (ENE) 22:57:24 437.345 MHz
HO-68 30 Oct 22:58:14 23:03:26 21° 267° (W) 23:08:41 435.675 MHz FM
MaSat-1 30 Oct 23:03:01 23:06:56 61° 296° (WNW) 23:10:29 437.345 MHz
KITSAT 1 30 Oct 23:06:42 23:10:38 15° 260° (W) 23:14:35 435.175 FM
Oscar 11 30 Oct 23:18:08 23:21:14 19° 266° (W) 23:24:21 145.825 FM, Beacon 2401.500 USB
UOSAT-12 30 Oct 23:25:25 23:29:38 34° 246° (WSW) 23:33:46 437.025 FM, 437.400 FM
FUNcube-1 30 Oct 23:31:59 23:36:05 33° 263° (W) 23:40:07 145.950 - 145.970 MHz USB
RS-15 30 Oct 23:36:24 23:46:32 42° 316° (NW) 23:56:45 29.354 - 29.394 USB, Beacon 29.352 USB
PCSat 31 Oct 01:44:43 01:48:09 17° 105° (ESE) 01:51:36 145.825 MHz
RS-15 31 Oct 01:56:22 02:03:08 18° 349° (NNW) 02:09:59 29.354 - 29.394 USB, Beacon 29.352 USB
AO-Echo 31 Oct 01:56:34 01:57:34 11° 88° (E) 01:58:35 ?
Oscar 19 31 Oct 02:06:10 02:10:26 26° 95° (E) 02:14:41 437.125 CW, 437.150 USB
AO-27 31 Oct 02:41:17 02:45:23 23° 94° (E) 02:49:27 436.795 MHz FM
JAS-1B 31 Oct 02:47:41 02:54:53 66° 103° (ESE) 03:03:28 435.800 - 435.900 CW/SSB
Oscar 16 31 Oct 02:52:31 02:57:39 77° 103° (ESE) 03:02:46 437.025 USB, Beacon 2401.1428
Gurwin Techsat 1B 31 Oct 02:54:26 02:57:39 16° 92° (E) 03:00:51 435.225 FM
TMSAT-1 31 Oct 03:01:43 03:04:16 14° 90° (E) 03:06:48 436.925 FM
Sapphire 31 Oct 03:03:50 03:09:14 83° 117° (ESE) 03:14:41 437.095 MHz 1200 baud AX-25 AFSK
Uribyol 2 31 Oct 03:24:32 03:29:42 64° 102° (ESE) 03:34:50 436.500 FM
PCSat 31 Oct 03:25:42 03:31:01 60° 301° (WNW) 03:36:24 145.825 MHz
AO-Echo 31 Oct 03:31:36 03:36:57 85° 284° (WNW) 03:42:13 ?
ITAMSAT 1 31 Oct 03:32:20 03:37:34 71° 102° (ESE) 03:42:44 435.822 SSB
Oscar 19 31 Oct 03:45:12 03:49:47 34° 291° (WNW) 03:54:22 437.125 CW, 437.150 USB
AO-7 31 Oct 04:02:21 04:06:52 15° 90° (E) 04:11:21 29.400 - 29.500 MHz
RS-15 31 Oct 04:13:12 04:21:26 23° 26° (NNE) 04:29:50 29.354 - 29.394 USB, Beacon 29.352 USB
AO-27 31 Oct 04:20:09 04:25:01 40° 290° (WNW) 04:29:50 436.795 MHz FM
Gurwin Techsat 1B 31 Oct 04:32:45 04:37:59 59° 287° (WNW) 04:43:10 435.225 FM
Oscar 16 31 Oct 04:34:08 04:36:19 13° 299° (WNW) 04:38:30 437.025 USB, Beacon 2401.1428
TMSAT-1 31 Oct 04:39:22 04:44:39 69° 286° (WNW) 04:49:54 436.925 FM
JAS-1B 31 Oct 04:39:31 04:45:05 25° 296° (WNW) 04:51:24 435.800 - 435.900 CW/SSB
Sapphire 31 Oct 04:50:05 04:53:21 16° 315° (NW) 04:56:38 437.095 MHz 1200 baud AX-25 AFSK
OPAL 31 Oct 04:55:00 04:59:25 30° 66° (ENE) 05:03:48 ?
Uribyol 2 31 Oct 05:05:36 05:08:37 16° 298° (WNW) 05:11:37 436.500 FM
AO-Echo 31 Oct 05:13:29 05:14:50 11° 301° (WNW) 05:16:12 ?
ITAMSAT 1 31 Oct 05:13:43 05:16:25 14° 299° (WNW) 05:19:06 435.822 SSB
PCSat 31 Oct 05:14:40 05:15:36 10° 321° (NW) 05:16:32 145.825 MHz
Uosat F 31 Oct 05:22:49 05:27:37 42° 99° (E) 05:32:22 435.120 FM
JAS-2 31 Oct 05:43:09 05:49:42 28° 92° (E) 05:56:01 435.800 - 435.900 CW/SSB, 435.910 FM
Saudisat 1A 31 Oct 05:43:27 05:47:13 29° 113° (ESE) 05:51:01 436.775 MHz
PANSAT 31 Oct 05:48:53 05:51:23 17° 175° (S) 05:53:53 not established
AO-7 31 Oct 05:52:16 06:00:39 85° 107° (ESE) 06:09:01 29.400 - 29.500 MHz
RS-15 31 Oct 06:25:27 06:36:34 64° 54° (NE) 06:48:08 29.354 - 29.394 USB, Beacon 29.352 USB
OPAL 31 Oct 06:33:44 06:38:13 31° 261° (W) 06:42:40 ?
Hamsat 31 Oct 06:49:12 06:53:18 49° 99° (E) 06:57:25 145.90 MHz
STRAND 1 31 Oct 06:50:13 06:55:03 43° 71° (ENE) 06:59:55 ?
Uosat F 31 Oct 07:02:19 07:06:05 22° 295° (WNW) 07:09:51 435.120 FM
Saudisat 1A 31 Oct 07:22:55 07:26:43 28° 310° (NW) 07:30:34 436.775 MHz
JAS-2 31 Oct 07:27:19 07:35:01 60° 289° (WNW) 07:42:27 435.800 - 435.900 CW/SSB, 435.910 FM
PANSAT 31 Oct 07:28:33 07:30:53 16° 188° (S) 07:33:14 not established
AO-7 31 Oct 07:46:36 07:52:26 22° 306° (NW) 07:58:17 29.400 - 29.500 MHz
SO-67 31 Oct 07:53:29 07:56:33 29° 97° (E) 07:59:35 435.3500 MHz FM
Hamsat 31 Oct 08:26:41 08:28:49 14° 294° (WNW) 08:30:57 145.90 MHz
STRAND 1 31 Oct 08:30:35 08:34:24 21° 266° (W) 08:38:14 ?
RS-15 31 Oct 08:38:33 08:48:17 36° 254° (WSW) 08:58:26 29.354 - 29.394 USB, Beacon 29.352 USB
HO-68 31 Oct 08:40:59 08:43:13 12° 88° (E) 08:45:27 435.675 MHz FM
MaSat-1 31 Oct 08:49:04 08:51:15 29° 250° (WSW) 08:53:21 437.345 MHz
JAS-2 31 Oct 09:15:45 09:18:25 12° 308° (NW) 09:21:05 435.800 - 435.900 CW/SSB, 435.910 FM
SO-67 31 Oct 09:27:24 09:29:14 14° 292° (WNW) 09:31:04 435.3500 MHz FM
ISS 31 Oct 09:38:17 09:40:30 17° 130° (SE) 09:42:44 145.800 FM
KITSAT 1 31 Oct 09:44:10 09:48:23 15° 100° (E) 09:52:35 435.175 FM
HO-68 31 Oct 10:24:41 10:31:56 78° 105° (ESE) 10:39:06 435.675 MHz FM
UKube-1 31 Oct 10:30:39 10:34:36 32° 98° (E) 10:38:30 145.840 MHz, 145.915 MHz
PCSat 31 Oct 10:33:17 10:36:00 14° 43° (NE) 10:38:43 145.825 MHz
ZACube-1 31 Oct 10:40:14 10:42:53 16° 93° (E) 10:45:30 437.345 MHz
Oscar 11 31 Oct 11:05:28 11:09:48 84° 103° (ESE) 11:14:06 145.825 FM, Beacon 2401.500 USB
SO-50 31 Oct 11:10:52 11:14:57 37° 114° (ESE) 11:19:10 436.795 FM
ISS 31 Oct 11:13:42 11:16:55 47° 326° (NW) 11:20:09 145.800 FM
FUNcube-1 31 Oct 11:22:00 11:26:05 50° 100° (E) 11:30:06 145.950 - 145.970 MHz USB
KITSAT 1 31 Oct 11:34:29 11:42:34 85° 117° (ESE) 11:50:41 435.175 FM
Sapphire 31 Oct 11:53:13 11:58:30 50° 58° (ENE) 12:03:45 437.095 MHz 1200 baud AX-25 AFSK
UKube-1 31 Oct 12:07:17 12:10:33 21° 293° (WNW) 12:13:49 145.840 MHz, 145.915 MHz
HO-68 31 Oct 12:13:54 12:18:49 20° 303° (WNW) 12:23:44 435.675 MHz FM
PCSat 31 Oct 12:14:49 12:20:16 82° 62° (ENE) 12:25:41 145.825 MHz
ZACube-1 31 Oct 12:15:34 12:19:25 36° 288° (WNW) 12:23:13 437.345 MHz
Oscar 16 31 Oct 12:32:53 12:34:42 12° 60° (ENE) 12:36:31 437.025 USB, Beacon 2401.1428
SO-50 31 Oct 12:51:51 12:55:35 25° 312° (NW) 12:59:26 436.795 FM
ISS 31 Oct 12:52:42 12:54:16 13° 344° (NNW) 12:55:50 145.800 FM
FUNcube-1 31 Oct 13:00:06 13:02:00 13° 296° (WNW) 13:03:53 145.950 - 145.970 MHz USB
Uribyol 2 31 Oct 13:06:45 13:07:38 10° 59° (ENE) 13:08:31 436.500 FM
AO-Echo 31 Oct 13:07:52 13:10:02 13° 60° (ENE) 13:12:12 ?
ITAMSAT 1 31 Oct 13:13:44 13:15:31 12° 60° (ENE) 13:17:18 435.822 SSB
